QPF
0.00 0.00 0.00 0.00 0.00 0.00 0.00 0.00 0.00 0.00 0.00 0.00 0.00 0.00 0.00 0.00 0.00 0.00 0.00 0.00 0.00 0.00 0.00 0.00 0.00 0.00 0.00 0.00 0.00 0.00 0.00 0.01 0.01 0.00 0.00 0.00 0.00 0.00 0.00 0.00 0.00 0.00 0.00 0.00 0.00
0.00 0.00 0.00 0.00 0.00 0.00 0.00 0.00 0.00 0.00 0.00 0.00 0.00 0.00 0.00 0.00 0.00 0.00 0.00 0.00 0.00 0.00 0.00 0.00 0.00 0.00 0.00 0.00 0.00 0.00 0.00 0.01 0.01 0.00 0.00 0.00 0.00 0.00 0.00 0.00 0.00 0.00 0.00 0.00 0.00
0.00 0.00 0.00 0.00 0.00 0.00 0.00 0.00 0.00 0.00 0.00 0.00 0.00 0.00 0.00 0.00 0.00 0.00 0.00 0.00 0.00 0.00 0.00 0.00 0.00 0.00 0.00 0.00 0.00 0.00 0.00 0.00 0.00 0.00 0.00 0.00 0.00 0.00 0.00 0.00 0.00 0.00 0.00 0.00 0.00
0.00 0.00 0.00 0.00 0.00 0.00 0.00 0.00 0.00 0.00 0.00 0.00 0.00 0.00 0.00 0.00 0.00 0.00 0.00 0.00 0.00 0.00 0.00 0.00 0.00 0.00 0.00 0.00 0.00 0.00 0.00 0.00 0.00 0.00 0.00 0.00 0.00 0.00 0.00 0.00 0.00 0.00 0.00 0.00 0.00
0.00 0.00 0.00 0.00 0.00 0.00 0.00 0.00 0.00 0.00 0.00 0.00 0.00 0.00 0.00 0.00 0.00 0.00 0.00 0.00 0.00 0.00 0.00 0.00 0.00 0.00 0.00 0.00 0.00 0.00 0.00 0.00 0.00 0.00 0.00 0.00 0.00 0.00 0.00 0.00 0.00 0.00 0.00 0.00 0.00
0.00 0.00 0.00 0.00 0.00 0.00 0.00 0.00 0.00 0.00 0.00 0.00 0.00 0.00 0.00 0.00 0.00 0.00 0.00 0.00 0.00 0.00 0.00 0.00 0.00 0.00 0.00 0.00 0.00 0.00 0.00 0.00 0.00 0.00 0.00 0.00 0.00 0.00 0.00 0.00 0.00 0.00 0.00 0.00 0.00
0.00 0.00 0.00 0.00 0.00 0.00 0.00 0.00 0.00 0.00 0.00 0.00 0.00 0.00 0.00 0.00 0.00 0.00 0.00 0.00 0.00 0.00 0.00 0.00 0.00 0.00 0.00 0.00 0.00 0.00 0.00 0.00 0.00 0.00 0.00 0.00 0.00 0.00 0.00 0.00 0.00 0.00 0.00 0.00 0.00
0.00 0.00 0.00 0.00 0.00 0.00 0.00 0.00 0.00 0.00 0.00 0.00 0.00 0.00 0.00 0.00 0.00 0.00 0.00 0.00 0.00 0.00 0.00 0.00 0.00 0.00 0.00 0.00 0.00 0.00 0.00 0.00 0.00 0.00 0.00 0.00 0.00 0.00 0.00 0.00 0.00 0.00 0.00 0.00 0.00
0.00 0.00 0.00 0.00 0.00 0.00 0.00 0.00 0.00 0.00 0.00 0.00 0.00 0.00 0.00 0.00 0.00 0.00 0.00 0.00 0.00 0.00 0.00 0.00 0.00 0.00 0.00 0.00 0.00 0.00 0.00 0.00 0.00 0.00 0.00 0.00 0.00 0.00 0.00 0.00 0.00 0.00 0.00 0.00 0.00
0.00 0.00 0.00 0.00 0.00 0.00 0.00 0.00 0.00 0.00 0.00 0.00 0.00 0.00 0.00 0.00 0.00 0.00 0.00 0.00 0.00 0.00 0.00 0.00 0.00 0.00 0.00 0.00 0.00 0.00 0.00 0.00 0.00 0.00 0.00 0.00 0.00 0.00 0.00 0.00 0.00 0.00 0.00 0.00 0.00
0.00 0.00 0.00 0.00 0.00 0.00 0.00 0.00 0.00 0.00 0.00 0.00 0.00 0.00 0.00 0.00 0.00 0.00 0.00 0.00 0.00 0.00 0.00 0.00 0.00 0.00 0.00 0.00 0.00 0.00 0.00 0.00 0.00 0.00 0.00 0.00 0.00 0.00 0.00 0.00 0.00 0.00 0.00 0.00 0.00
0.00 0.00 0.00 0.00 0.00 0.00 0.00 0.00 0.00 0.00 0.00 0.00 0.00 0.00 0.00 0.00 0.00 0.00 0.00 0.00 0.00 0.00 0.00 0.00 0.00 0.00 0.00 0.00 0.00 0.00 0.00 0.00 0.00 0.00 0.00 0.00 0.00 0.00 0.00 0.00 0.00 0.00 0.00 0.00 0.00
0.00 0.00 0.00 0.00 0.00 0.00 0.00 0.00 0.00 0.00 0.00 0.00 0.00 0.00 0.00 0.00 0.00 0.00 0.00 0.00 0.00 0.00 0.00 0.00 0.00 0.00 0.00 0.00 0.00 0.00 0.00 0.00 0.00 0.00 0.00 0.00 0.00 0.00 0.00 0.00 0.00 0.00 0.00 0.00 0.00
0.00 0.00 0.00 0.00 0.00 0.00 0.00 0.00 0.00 0.00 0.00 0.00 0.00 0.00 0.00 0.00 0.00 0.00 0.00 0.00 0.00 0.00 0.00 0.00 0.00 0.00 0.00 0.00 0.00 0.00 0.00 0.00 0.00 0.00 0.00 0.00 0.00 0.00 0.00 0.00 0.00 0.00 0.00 0.00 0.00
0.00 0.00 0.00 0.00 0.00 0.00 0.00 0.00 0.00 0.00 0.00 0.00 0.00 0.00 0.00 0.00 0.00 0.00 0.00 0.00 0.00 0.00 0.00 0.00 0.00 0.00 0.00 0.00 0.00 0.00 0.00 0.00 0.00 0.00 0.00 0.00 0.00 0.00 0.00 0.00 0.00 0.00 0.00 0.00 0.00
0.00 0.00 0.00 0.00 0.00 0.00 0.00 0.00 0.00 0.00 0.00 0.00 0.00 0.00 0.00 0.00 0.00 0.00 0.00 0.00 0.00 0.00 0.00 0.00 0.00 0.00 0.00 0.00 0.00 0.00 0.00 0.00 0.00 0.00 0.00 0.00 0.00 0.00 0.00 0.00 0.00 0.00 0.00 0.00 0.00
0.00 0.00 0.00 0.00 0.00 0.00 0.00 0.00 0.00 0.00 0.00 0.00 0.00 0.00 0.00 0.00 0.00 0.00 0.00 0.00 0.00 0.00 0.00 0.00 0.00 0.00 0.00 0.00 0.00 0.00 0.00 0.00 0.00 0.00 0.00 0.00 0.00 0.00 0.00 0.00 0.00 0.00 0.00 0.00 0.00
0.00 0.00 0.00 0.00 0.00 0.00 0.00 0.00 0.00 0.00 0.00 0.00 0.00 0.00 0.00 0.00 0.00 0.00 0.00 0.00 0.00 0.00 0.00 0.00 0.00 0.00 0.00 0.00 0.00 0.00 0.00 0.00 0.00 0.00 0.00 0.00 0.00 0.00 0.00 0.00 0.00 0.00 0.00 0.00 0.00
0.00 0.00 0.00 0.00 0.00 0.00 0.00 0.00 0.00 0.00 0.00 0.00 0.00 0.00 0.00 0.00 0.00 0.00 0.00 0.00 0.00 0.00 0.00 0.00 0.00 0.00 0.00 0.00 0.00 0.00 0.00 0.00 0.00 0.00 0.00 0.00 0.00 0.00 0.00 0.00 0.00 0.00 0.00 0.00 0.00
0.00 0.00 0.00 0.00 0.00 0.00 0.00 0.00 0.00 0.00 0.00 0.00 0.00 0.00 0.00 0.00 0.00 0.00 0.00 0.00 0.00 0.00 0.00 0.00 0.00 0.00 0.00 0.00 0.00 0.00 0.00 0.00 0.00 0.00 0.00 0.00 0.00 0.00 0.00 0.00 0.00 0.00 0.00 0.00 0.00
0.00 0.00 0.00 0.00 0.00 0.00 0.00 0.00 0.00 0.00 0.00 0.00 0.00 0.00 0.00 0.00 0.00 0.00 0.00 0.00 0.00 0.00 0.00 0.00 0.00 0.00 0.00 0.00 0.00 0.00 0.00 0.00 0.00 0.00 0.00 0.00 0.00 0.00 0.00 0.00 0.00 0.00 0.00 0.00 0.00
0.00 0.00 0.00 0.00 0.00 0.00 0.00 0.00 0.00 0.00 0.00 0.00 0.00 0.00 0.00 0.00 0.00 0.00 0.00 0.00 0.00 0.00 0.00 0.00 0.00 0.00 0.00 0.00 0.00 0.00 0.00 0.00 0.00 0.00 0.00 0.00 0.00 0.00 0.00 0.00 0.00 0.00 0.00 0.00 0.00
0.00 0.00 0.00 0.00 0.00 0.00 0.00 0.00 0.00 0.00 0.00 0.00 0.00 0.00 0.00 0.00 0.00 0.00 0.00 0.00 0.00 0.00 0.00 0.00 0.00 0.00 0.00 0.00 0.00 0.00 0.00 0.00 0.00 0.00 0.00 0.01 0.00 0.00 0.00 0.00 0.00 0.00 0.00 0.02 0.01
0.00 0.00 0.00 0.00 0.00 0.00 0.00 0.00 0.00 0.00 0.00 0.00 0.00 0.00 0.00 0.00 0.00 0.00 0.00 0.00 0.00 0.00 0.00 0.00 0.00 0.00 0.00 0.00 0.00 0.00 0.00 0.00 0.00 0.00 0.00 0.00 0.00 0.00 0.00 0.00 0.00 0.00 0.00 0.06 0.05
0.00 0.00 0.00 0.00 0.00 0.00 0.00 0.00 0.00 0.00 0.00 0.00 0.00 0.00 0.00 0.00 0.00 0.00 0.00 0.00 0.00 0.00 0.00 0.00 0.00 0.00 0.00 0.00 0.00 0.00 0.00 0.00 0.00 0.00 0.00 0.00 0.00 0.04 0.10 0.01 0.00 0.01 0.00 0.05 0.05
0.00 0.00 0.00 0.00 0.00 0.00 0.00 0.00 0.00 0.00 0.00 0.00 0.00 0.00 0.00 0.00 0.00 0.00 0.00 0.00 0.00 0.00 0.00 0.00 0.00 0.00 0.00 0.00 0.00 0.00 0.00 0.00 0.00 0.00 0.00 0.00 0.00 0.02 0.01 0.05 0.02 0.00 0.01 0.03 0.04
0.00 0.00 0.00 0.00 0.00 0.00 0.00 0.00 0.00 0.00 0.00 0.00 0.00 0.00 0.00 0.00 0.00 0.00 0.00 0.00 0.00 0.00 0.00 0.00 0.00 0.00 0.00 0.00 0.00 0.00 0.00 0.00 0.00 0.00 0.00 0.00 0.01 0.00 0.02 0.03 0.01 0.01 0.00 0.03 0.07
MSLP
1018.11 1017.62 1017.09 1016.65 1016.24 1015.83 1015.37 1014.81 1014.34 1013.88 1013.41 1012.93 1012.49 1012.33 1012.04 1011.65 1011.14 1010.37 1007.50 1005.92 1005.98 1006.74 1006.98 1006.50 1005.87 1005.24 1004.80 1003.88 1003.00 1002.33 1000.29 997.87 996.97 996.32 996.60 996.47 996.76 996.81 997.53 997.90 999.14 999.73 1000.06 1001.23 1003.24
1018.25 1017.75 1017.21 1016.72 1016.22 1015.72 1015.32 1014.88 1014.36 1013.76 1013.22 1012.88 1012.34 1011.85 1011.76 1011.51 1009.86 1007.22 1005.71 1005.74 1006.27 1006.53 1006.18 1005.08 1004.72 1004.51 1003.74 1002.84 1001.97 1001.18 999.21 997.75 998.23 996.70 996.88 996.96 997.02 996.82 996.78 997.13 998.56 999.50 1000.20 1001.17 1002.86
1018.25 1017.72 1017.21 1016.65 1016.06 1015.49 1014.99 1014.58 1014.13 1013.63 1013.11 1012.65 1012.17 1011.69 1011.47 1011.13 1008.16 1004.84 1005.92 1005.94 1006.26 1006.35 1004.92 1004.49 1003.94 1003.81 1002.98 1001.80 1000.84 1000.47 999.34 998.02 997.34 997.40 997.58 997.34 997.10 996.99 996.47 996.44 996.77 998.35 999.88 1000.88 1002.17
1018.36 1017.81 1017.28 1016.66 1016.01 1015.42 1014.82 1014.22 1013.57 1013.10 1012.78 1012.46 1011.94 1011.51 1011.32 1009.95 1006.20 1005.13 1005.80 1005.96 1006.27 1005.88 1004.63 1004.15 1003.65 1003.05 1002.34 1001.13 1000.48 1000.17 999.53 998.98 998.23 997.75 997.68 997.40 997.13 997.06 996.59 996.40 996.45 997.22 998.96 1000.15 1001.30
1018.23 1017.70 1017.11 1016.50 1015.81 1015.17 1014.53 1013.91 1013.26 1012.71 1012.29 1012.09 1011.66 1011.41 1010.93 1008.03 1004.91 1005.43 1005.91 1006.34 1006.37 1005.90 1004.26 1003.68 1003.23 1002.60 1001.82 1000.85 1000.24 999.81 999.50 999.11 998.55 998.05 997.61 997.37 997.15 996.82 996.56 996.15 996.36 997.13 998.13 999.75 1000.77
1018.32 1017.77 1017.14 1016.46 1015.69 1014.99 1014.30 1013.51 1012.83 1012.22 1011.57 1011.47 1011.20 1011.27 1009.61 1005.97 1004.17 1004.53 1004.92 1006.01 1005.15 1005.02 1003.90 1003.42 1002.75 1002.26 1001.78 1001.10 1000.56 1000.00 999.63 998.97 998.57 998.05 997.58 997.31 996.77 996.53 996.06 995.93 996.30 997.32 997.84 999.31 1000.08
1018.38 1017.79 1017.07 1016.21 1015.26 1014.42 1013.62 1012.80 1012.13 1011.55 1011.11 1010.76 1010.64 1010.21 1007.16 1004.51 1004.11 1004.17 1004.40 1004.76 1004.41 1004.05 1003.33 1003.02 1002.71 1002.38 1002.17 1001.43 1000.88 1000.25 999.71 998.95 998.12 997.45 996.96 996.89 996.26 995.78 995.71 995.60 996.24 996.92 997.86 998.60 999.38
1018.00 1017.34 1016.59 1015.80 1014.92 1014.13 1013.28 1012.41 1011.66 1011.01 1010.56 1010.16 1010.20 1009.05 1004.98 1004.09 1004.07 1004.19 1003.71 1003.68 1003.91 1003.70 1003.28 1002.88 1002.93 1002.77 1002.58 1002.09 1001.31 1000.55 999.74 998.13 997.02 996.31 995.91 996.14 995.27 995.44 995.08 994.72 995.61 996.21 996.84 997.72 998.48
1017.80 1017.20 1016.45 1015.70 1014.66 1013.72 1012.78 1011.86 1011.12 1010.64 1010.34 1010.17 1009.55 1007.27 1003.78 1004.97 1004.12 1003.45 1003.60 1003.41 1003.34 1003.51 1003.60 1003.57 1003.55 1002.96 1002.54 1001.71 1000.73 999.91 998.41 997.32 996.37 995.79 995.36 995.23 995.09 995.29 994.90 994.58 995.18 995.89 996.32 996.55 996.97
1017.78 1016.99 1016.20 1015.47 1014.45 1013.26 1012.13 1010.90 1010.36 1010.40 1009.96 1008.71 1007.51 1006.15 1004.11 1003.34 1003.47 1003.45 1003.33 1003.38 1002.86 1002.80 1002.95 1003.27 1003.08 1002.15 1001.42 1000.80 999.22 998.44 997.39 996.43 995.70 995.77 995.27 994.89 995.00 994.99 994.95 994.76 994.92 995.31 995.35 995.66 995.86
1017.64 1017.06 1016.38 1015.55 1014.28 1012.74 1011.86 1008.88 1009.55 1009.06 1006.86 1005.89 1004.95 1004.27 1003.46 1003.50 1003.29 1003.14 1003.03 1003.15 1003.14 1002.83 1002.02 1001.72 1001.49 1000.45 999.96 999.43 999.10 998.71 998.03 997.28 996.44 995.77 995.33 995.12 994.84 994.73 994.79 994.57 994.53 994.66 994.77 994.77 994.84
1017.84 1017.19 1016.35 1015.19 1014.03 1012.60 1011.88 1009.43 1010.41 1010.30 1007.24 1005.06 1004.66 1004.05 1003.64 1003.70 1002.54 1002.41 1002.82 1002.58 1002.18 1001.90 1001.14 1000.84 999.66 999.51 999.36 999.25 998.80 998.33 997.77 997.04 996.84 996.66 996.12 995.45 994.91 994.91 994.55 994.31 994.30 994.42 994.02 993.74 993.76
1017.90 1017.09 1016.17 1014.94 1013.70 1012.02 1010.70 1010.65 1010.39 1009.80 1007.39 1004.22 1003.69 1003.19 1002.85 1003.11 1002.00 1001.59 1002.20 1001.56 1001.25 1000.71 1000.20 999.54 998.71 998.35 998.69 998.64 998.41 997.91 997.65 997.28 996.78 996.60 995.93 995.58 994.72 994.65 994.28 994.00 993.70 993.39 993.29 992.95 992.93
1017.69 1017.05 1016.22 1014.83 1013.77 1011.22 1010.13 1010.53 1010.04 1009.77 1006.35 1003.52 1002.99 1002.44 1002.45 1002.07 1001.70 1001.88 1001.81 1001.80 1000.82 1000.18 999.73 998.95 998.39 998.50 998.54 997.99 998.07 997.56 997.43 997.15 996.78 996.51 995.68 995.80 994.03 993.78 993.48 992.76 992.30 992.71 992.29 992.09 992.18
1017.30 1016.70 1016.27 1016.26 1014.14 1010.65 1010.81 1010.33 1010.13 1009.31 1004.61 1003.22 1002.03 1002.45 1001.95 1001.74 1001.32 1001.29 1001.86 1001.59 1000.84 999.92 999.90 998.61 998.30 998.22 998.03 997.77 997.75 997.49 997.66 997.54 997.20 996.64 996.04 995.68 994.88 993.52 992.99 992.90 991.94 991.98 991.53 991.07 990.92
1017.10 1016.72 1016.35 1014.34 1013.09 1011.24 1010.80 1010.30 1009.69 1007.24 1003.23 1002.55 1002.18 1001.62 1001.03 1001.06 1000.93 1000.92 1001.13 1001.64 1000.88 1000.28 999.58 998.84 998.41 998.20 998.20 998.04 997.91 997.89 997.78 997.41 997.18 996.60 996.35 996.47 996.56 995.55 993.73 992.60 992.01 991.10 990.82 990.49 990.28
1016.96 1016.30 1016.24 1013.84 1011.18 1011.05 1010.71 1009.37 1006.95 1004.23 1003.43 1002.28 1001.67 1001.52 1001.00 1000.51 1000.52 1000.81 1000.35 1000.18 999.97 999.79 998.35 998.05 996.84 997.31 997.92 997.89 997.65 997.66 997.19 996.30 996.03 996.16 996.60 997.15 997.45 996.57 995.15 992.93 992.25 991.10 990.38 990.08 989.96
1016.55 1015.66 1013.94 1012.64 1011.79 1011.09 1010.04 1008.00 1005.23 1003.39 1002.90 1002.85 1002.48 1001.76 1001.16 1000.70 1000.44 1000.66 1000.47 999.79 1000.22 1000.55 999.17 997.73 997.11 997.20 997.48 997.56 997.24 996.88 996.72 996.37 996.07 996.41 996.85 997.94 997.06 995.93 995.96 995.00 992.83 991.74 991.35 991.26 991.09
1015.84 1012.39 1011.66 1010.86 1011.39 1011.11 1009.34 1006.19 1003.47 1003.47 1003.85 1003.22 1002.40 1001.64 1000.58 1001.20 1001.54 1000.71 1000.21 1000.24 1000.64 1001.05 1000.64 999.36 997.87 997.75 997.10 997.27 997.11 996.34 996.81 996.69 996.83 996.91 996.35 997.18 996.98 996.11 996.12 994.10 992.21 992.06 992.19 992.35 992.76
1015.67 1012.01 1009.91 1010.63 1010.93 1010.27 1008.36 1005.41 1004.19 1004.55 1004.52 1003.82 1002.64 1002.41 1001.34 1001.12 1001.45 1000.71 1000.34 1000.64 1001.12 1001.49 1001.46 1000.32 999.30 998.35 997.10 997.16 996.79 996.73 996.63 996.68 996.72 997.49 997.08 996.14 997.15 996.08 995.15 995.07 994.52 994.32 992.72 993.74 994.39
1015.29 1010.80 1009.99 1010.10 1010.29 1009.10 1006.59 1004.40 1004.51 1004.77 1004.98 1004.12 1003.19 1002.91 1002.41 1002.24 1002.07 1001.35 1000.90 1001.06 1001.61 1002.09 1001.78 1000.79 1000.01 998.93 997.84 996.93 996.90 997.05 997.34 996.85 996.61 997.10 996.60 997.11 995.66 996.62 995.99 995.41 993.76 994.34 990.92 994.54 995.44
1013.74 1010.09 1009.66 1009.80 1008.95 1006.75 1005.42 1004.62 1005.62 1004.78 1004.98 1004.48 1004.42 1003.68 1003.29 1003.00 1002.69 1001.98 1001.61 1001.60 1002.40 1002.91 1002.12 1001.34 1000.99 999.87 998.62 997.71 997.68 997.41 997.98 997.56 997.05 997.72 996.96 997.65 995.01 994.60 995.33 995.14 993.88 994.45 995.31 996.25 996.73
1013.09 1010.05 1008.96 1009.35 1007.39 1005.37 1004.86 1005.61 1005.48 1004.88 1004.66 1004.28 1004.09 1004.19 1003.92 1003.76 1003.53 1002.70 1002.43 1002.58 1002.95 1003.20 1002.92 1003.11 1001.95 1000.38 998.55 997.40 998.58 999.05 1000.35 1001.41 998.07 997.77 997.39 998.54 997.84 997.65 996.12 995.07 996.17 996.34 996.93 998.09 998.09
1013.73 1009.49 1008.03 1008.43 1007.46 1006.79 1005.47 1005.19 1004.87 1005.27 1005.26 1004.91 1004.62 1004.38 1004.42 1003.99 1003.74 1003.41 1003.13 1003.02 1003.07 1003.26 1004.00 1004.04 1002.91 1001.89 1000.21 998.58 999.45 999.86 999.77 999.71 998.97 997.60 996.98 997.02 997.94 998.57 999.07 997.73 997.35 998.40 998.43 999.15 999.24
1013.53 1009.85 1009.46 1007.37 1006.53 1006.64 1006.28 1005.83 1005.11 1004.73 1005.22 1005.06 1004.93 1004.58 1004.37 1004.12 1003.92 1003.43 1003.08 1002.72 1003.11 1003.41 1003.51 1003.10 1002.68 1002.22 1001.37 1000.29 999.25 998.34 998.10 997.68 997.21 997.05 996.90 996.95 997.11 999.52 1001.09 999.11 998.87 998.64 999.12 999.82 999.81
1013.32 1011.15 1009.94 1009.01 1008.29 1007.85 1006.87 1006.24 1005.66 1005.13 1005.12 1004.92 1004.80 1004.59 1004.60 1004.76 1004.46 1004.00 1003.81 1003.89 1003.87 1003.90 1003.55 1003.31 1003.01 1002.81 1001.68 1000.66 999.61 998.52 997.86 997.21 996.95 996.91 996.74 996.91 997.30 998.78 1000.10 1000.17 999.79 999.44 1000.03 1000.43 1000.47
1013.48 1013.09 1012.10 1009.57 1008.24 1007.70 1006.47 1005.95 1005.89 1005.74 1005.35 1005.53 1005.06 1005.10 1005.10 1004.91 1005.32 1005.20 1005.01 1004.53 1004.06 1003.72 1003.46 1003.52 1003.34 1003.01 1001.52 1000.70 999.56 997.85 996.79 996.48 996.84 997.20 997.64 997.47 998.83 1000.44 1001.00 1001.09 1001.35 1000.93 1000.54 1000.83 1000.82
Thickness
5772 5776 5780 5783 5786 5788 5791 5795 5799 5802 5806 5809 5813 5814 5815 5818 5822 5829 5841 5861 5861 5855 5854 5853 5854 5854 5856 5851 5863 5867 5842 5820 5839 5869 5873 5900 5882 5900 5899 5880 5873 5872 5865 5862 5852
5770 5773 5777 5780 5784 5787 5789 5792 5796 5800 5805 5808 5811 5815 5815 5817 5830 5843 5864 5863 5859 5855 5852 5849 5842 5849 5842 5848 5858 5850 5848 5856 5867 5890 5880 5887 5882 5888 5887 5881 5868 5866 5873 5870 5855
5768 5771 5775 5778 5782 5786 5789 5792 5796 5800 5804 5808 5811 5814 5816 5818 5835 5857 5860 5860 5857 5855 5863 5860 5858 5847 5837 5855 5858 5853 5842 5874 5883 5887 5884 5878 5879 5891 5885 5875 5884 5869 5866 5867 5857
5764 5768 5771 5776 5781 5786 5790 5795 5800 5804 5806 5809 5812 5815 5816 5827 5819 5861 5860 5858 5855 5857 5860 5852 5847 5836 5832 5836 5859 5836 5858 5863 5871 5883 5877 5871 5886 5876 5884 5887 5905 5898 5885 5874 5860
5763 5767 5772 5777 5782 5788 5793 5798 5803 5807 5810 5811 5814 5815 5821 5828 5844 5861 5858 5854 5851 5851 5851 5846 5838 5837 5827 5843 5852 5842 5851 5860 5868 5872 5876 5880 5872 5875 5879 5902 5907 5901 5890 5874 5866
5761 5766 5771 5777 5783 5790 5796 5802 5806 5810 5815 5815 5816 5815 5824 5820 5869 5867 5864 5852 5855 5850 5850 5850 5844 5851 5838 5837 5836 5848 5848 5854 5860 5861 5869 5863 5871 5879 5889 5905 5897 5889 5884 5876 5871
5760 5765 5771 5778 5786 5793 5800 5806 5811 5815 5817 5819 5818 5822 5833 5838 5867 5866 5864 5855 5859 5855 5845 5854 5855 5841 5839 5828 5847 5842 5827 5842 5853 5862 5861 5872 5855 5864 5894 5902 5888 5883 5879 5878 5876
5761 5767 5773 5780 5787 5794 5800 5807 5813 5817 5819 5821 5820 5827 5835 5865 5865 5859 5865 5857 5860 5859 5854 5858 5854 5837 5827 5835 5828 5818 5824 5814 5852 5866 5873 5866 5835 5872 5900 5903 5883 5884 5883 5879 5879
5762 5767 5773 5779 5788 5795 5802 5809 5814 5816 5817 5818 5822 5830 5837 5856 5847 5860 5860 5845 5850 5850 5848 5847 5835 5821 5821 5806 5802 5813 5800 5816 5835 5869 5868 5862 5841 5869 5894 5895 5880 5878 5881 5884 5885
5761 5767 5773 5778 5786 5795 5804 5814 5815 5815 5818 5826 5832 5820 5841 5837 5848 5852 5858 5849 5839 5837 5829 5821 5814 5806 5810 5802 5783 5800 5812 5829 5831 5850 5860 5852 5843 5863 5876 5879 5874 5876 5882 5883 5887
5758 5763 5768 5774 5784 5796 5804 5826 5820 5816 5831 5825 5830 5827 5836 5846 5853 5842 5848 5837 5830 5821 5803 5819 5799 5793 5807 5816 5815 5810 5806 5804 5827 5850 5845 5836 5840 5851 5863 5868 5866 5869 5875 5882 5888
5753 5759 5764 5773 5782 5793 5797 5809 5796 5796 5802 5833 5830 5830 5838 5838 5825 5834 5844 5818 5814 5797 5815 5805 5798 5816 5821 5816 5810 5807 5799 5802 5816 5829 5827 5827 5826 5842 5854 5857 5859 5858 5870 5882 5893
5748 5754 5761 5770 5780 5794 5799 5792 5799 5800 5794 5823 5830 5826 5830 5831 5822 5826 5831 5826 5811 5804 5806 5798 5814 5828 5813 5805 5797 5800 5792 5794 5796 5813 5823 5818 5811 5822 5843 5852 5860 5867 5873 5884 5890
5743 5748 5755 5767 5775 5794 5792 5793 5795 5794 5787 5806 5812 5824 5828 5830 5812 5833 5834 5817 5811 5800 5806 5806 5822 5807 5799 5798 5800 5782 5808 5802 5797 5790 5774 5816 5780 5818 5838 5848 5860 5857 5868 5878 5888
5740 5745 5748 5749 5765 5786 5783 5789 5790 5785 5772 5804 5813 5836 5828 5811 5814 5816 5829 5812 5793 5800 5799 5795 5800 5795 5788 5794 5803 5788 5801 5791 5789 5783 5787 5789 5781 5809 5839 5822 5845 5854 5867 5882 5896
5734 5737 5740 5756 5764 5777 5780 5783 5780 5767 5767 5791 5805 5803 5805 5810 5808 5814 5810 5813 5811 5795 5798 5796 5814 5800 5792 5799 5798 5799 5784 5785 5784 5783 5750 5768 5758 5761 5805 5823 5838 5860 5869 5882 5897
5728 5734 5734 5749 5765 5771 5774 5773 5764 5768 5793 5784 5788 5797 5796 5793 5795 5795 5793 5787 5782 5765 5782 5794 5806 5806 5800 5779 5792 5785 5775 5758 5755 5753 5737 5766 5738 5751 5793 5820 5835 5852 5869 5886 5898
5726 5732 5745 5751 5758 5763 5765 5760 5745 5777 5775 5788 5782 5786 5776 5788 5788 5785 5781 5779 5782 5773 5774 5773 5768 5789 5796 5781 5775 5781 5781 5759 5729 5734 5739 5751 5737 5763 5793 5804 5840 5852 5859 5864 5873
5726 5753 5752 5760 5755 5757 5752 5748 5769 5769 5769 5766 5775 5768 5777 5776 5771 5774 5775 5771 5770 5769 5746 5752 5765 5791 5799 5794 5792 5784 5762 5791 5760 5766 5760 5745 5761 5786 5793 5815 5842 5838 5844 5844 5843
5717 5743 5755 5754 5751 5749 5742 5743 5760 5766 5762 5764 5751 5761 5755 5763 5758 5764 5765 5771 5758 5765 5767 5757 5738 5776 5794 5795 5796 5784 5798 5762 5767 5706 5712 5756 5736 5750 5782 5775 5799 5802 5827 5823 5833
5713 5735 5750 5750 5747 5738 5735 5756 5757 5763 5757 5751 5751 5747 5752 5747 5751 5753 5756 5763 5756 5752 5758 5757 5748 5753 5776 5776 5767 5767 5762 5775 5780 5764 5739 5716 5751 5765 5775 5787 5805 5792 5814 5815 5816
5714 5719 5746 5744 5725 5746 5741 5754 5723 5749 5753 5748 5745 5745 5740 5743 5737 5743 5742 5747 5751 5744 5732 5751 5737 5726 5746 5779 5785 5780 5765 5769 5754 5736 5763 5739 5765 5811 5796 5795 5807 5803 5801 5803 5805
5702 5719 5741 5732 5717 5738 5746 5734 5738 5739 5740 5740 5737 5739 5741 5730 5718 5735 5737 5748 5743 5733 5724 5727 5719 5712 5737 5772 5756 5735 5725 5697 5763 5758 5742 5708 5730 5769 5786 5765 5774 5778 5785 5779 5789
5688 5705 5723 5720 5726 5717 5723 5724 5725 5734 5727 5733 5729 5733 5724 5721 5729 5718 5723 5734 5737 5731 5717 5719 5710 5705 5708 5735 5734 5716 5729 5733 5735 5736 5748 5743 5732 5733 5726 5748 5762 5753 5769 5767 5775
5682 5697 5698 5704 5715 5713 5714 5714 5713 5714 5723 5725 5715 5719 5715 5705 5710 5712 5723 5727 5727 5723 5719 5719 5697 5707 5715 5726 5737 5746 5745 5753 5750 5754 5739 5754 5750 5707 5685 5730 5746 5757 5763 5759 5766
5666 5678 5691 5689 5693 5689 5686 5696 5699 5708 5708 5706 5704 5712 5710 5697 5701 5698 5706 5702 5698 5706 5705 5712 5688 5695 5697 5717 5723 5724 5741 5751 5753 5755 5755 5753 5747 5739 5736 5738 5738 5748 5749 5746 5748
5662 5660 5659 5674 5683 5680 5690 5695 5694 5699 5705 5704 5703 5698 5693 5697 5702 5702 5702 5702 5702 5695 5693 5692 5687 5681 5681 5708 5714 5713 5741 5749 5744 5741 5736 5727 5729 5724 5720 5722 5723 5729 5743 5744 5741